This demonstration page uses our WeatherBlox Daily Observations layout. Learn more.

Left ArrowRight Arrow

Hourly Observations for January 5, 2022

Temp ( °F °C ) Dew Point ( °F °C ) Humidity (%) Winds ( mph kmh ) Pressure ( in mb ) Visibility ( mi km ) Precip ( " mm )
12:54 am 00:54 Clear 14 -10 0 -17.8 53 53 NW 23 37 30.10 1019 10 16 0.00 0.00
1:54 am 01:54 Clear 13 -10.6 -1 -18.3 54 54 NW 21 33 30.11 1020 10 16 0.00 0.00
2:54 am 02:54 Clear 12 -11.1 -1 -18.3 56 56 NW 22 35 30.13 1020 10 16 0.00 0.00
3:54 am 03:54 Clear 11 -11.7 -1 -18.3 58 58 NW 15 24 30.12 1020 10 16 0.00 0.00
4:54 am 04:54 Clear 11 -11.7 -2 -18.9 55 55 NW 14 22 30.12 1020 10 16 0.00 0.00
5:54 am 05:54 Clear 9 -12.8 -5 -20.6 52 52 NW 20 31 30.14 1021 10 16 0.00 0.00
6:54 am 06:54 Clear 8 -13.3 -9 -22.8 45 45 NNW 24 39 30.16 1021 10 16 0.00 0.00
7:54 am 07:54 Sunny 7 -13.9 -10 -23.3 45 45 NW 20 31 30.20 1023 10 16 0.00 0.00
8:54 am 08:54 Sunny 8 -13.3 -9 -22.8 45 45 NW 18 30 30.22 1023 10 16 0.00 0.00
9:54 am 09:54 Sunny 9 -12.8 -9 -22.8 43 43 NNW 22 35 30.20 1023 10 16 0.00 0.00
10:54 am 10:54 Sunny 10 -12.2 -8 -22.2 43 43 NNW 23 37 30.22 1023 10 16 0.00 0.00
11:54 am 11:54 Sunny 13 -10.6 -7 -21.7 40 40 NNW 18 30 30.20 1023 10 16 0.00 0.00
12:54 pm 12:54 Sunny 13 -10.6 -7 -21.7 40 40 NW 14 22 30.20 1023 10 16 0.00 0.00
1:54 pm 13:54 Sunny 13 -10.6 -6 -21.1 42 42 NNW 15 24 30.20 1023 10 16 0.00 0.00
2:54 pm 14:54 Sunny 13 -10.6 -6 -21.1 42 42 NW 15 24 30.21 1023 10 16 0.00 0.00
3:54 pm 15:54 Partly Cloudy 13 -10.6 -6 -21.1 42 42 NW 17 28 30.24 1024 10 16 0.00 0.00
4:54 pm 16:54 Cloudy 12 -11.1 -6 -21.1 44 44 NW 20 31 30.27 1025 10 16 0.00 0.00
5:54 pm 17:54 Mostly Cloudy 11 -11.7 -6 -21.1 46 46 NNW 18 30 30.29 1026 10 16 0.00 0.00
6:54 pm 18:54 Cloudy 10 -12.2 -5 -20.6 50 50 NNW 17 28 30.32 1027 10 16 0.00 0.00
7:54 pm 19:54 Partly Cloudy 9 -12.8 -5 -20.6 52 52 NNW 15 24 30.33 1027 10 16 0.00 0.00
8:54 pm 20:54 Partly Cloudy 9 -12.8 -4 -20 55 55 NNW 18 30 30.33 1027 10 16 0.00 0.00
9:54 pm 21:54 Cloudy 9 -12.8 -3 -19.4 58 58 N 18 30 30.34 1027 10 16 0.00 0.00
10:54 pm 22:54 Cloudy 9 -12.8 -4 -20 55 55 N 18 30 30.36 1028 10 16 0.00 0.00
11:54 pm 23:54 Mostly Cloudy 7 -13.9 -5 -20.6 57 57 N 17 28 30.39 1029 10 16 0.00 0.00

Powered by AerisWeather